[[{"header":{"parameterUnit":"m.s-1","parameterCategory":1,"la1":30.2992,"la2":30.254,"lo1":-89.0895,"lo2":-89.0443,"dy":0.0025,"dx":0.0025,"nx":19,"ny":19,"refTime":"2026-04-15T21:00:00:Z","depth":0,"parameterNumber":2,"parameterNumberName":"U-component_of_WINDS"},"data":[0,0,0,0.9061,0.9061,0.9025,0.9024,0.9001,0.9001,0,0,0,0,0,0,0,0,0,0,0,0.9086,0.9086,0.9061,0.9061,0.9025,0.9024,0.9001,0.9001,0,0,0,0,0,0,0,0,0,0,0,0.9086,0.9086,0.9087,0.906,0.9025,0.9024,0.9001,0.902,0,0,0,0,0,0,0,0,0,0,0.9051,0.9088,0.9086,0.9087,0.906,0.9025,0.9024,0.9021,0.9019,0.9027,0,0.9039,0,0.902,0.9001,0.9001,0,0,0,0.905,0.909,0.9067,0.9087,0.906,0.9025,0.9038,0.9019,0.9017,0.9025,0.9039,0.9037,0.902,0.9001,0.9001,0.9087,0.9088,0,0,0.9052,0.9087,0.9069,0.9067,0.9074,0.9039,0.9037,0.9018,0.9035,0.9039,0.9036,0.9019,0.9001,0.9001,0.9087,0.9088,0,0,0,0.9065,0.9089,0.9066,0.9068,0.906,0.9038,0.9036,0.9035,0.9025,0.9036,0.9019,0.9001,0.9001,0.9086,0.9087,0.9166,0,0,0,0.9065,0.9097,0.9068,0.9089,0.9061,0.9047,0.9054,0.9026,0.9023,0.9019,0.9001,0.9001,0.9084,0.9086,0.9161,0.9196,0,0,0,0.9083,0.9098,0.9098,0.9091,0.9077,0.9047,0.9035,0.9025,0.9014,0.9001,0.9001,0.9084,0.9086,0.9157,0.919,0.9228,0,0,0,0.9113,0.9169,0.91,0.9157,0.9078,0.9097,0.9035,0.9047,0.9046,0.9001,0.9085,0.9087,0.9156,0.9186,0.9224,0.9265,0.9286,0,0,0.9203,0.9181,0.9212,0.9149,0.9189,0.9099,0.9151,0.9116,0.9083,0.9088,0.9089,0.9163,0.9189,0.9227,0.9395,0.9413,0,0,0,0.9252,0.9274,0.9277,0.9278,0.9254,0.9235,0.9189,0.9176,0.9178,0.9093,0.9187,0.9201,0.9222,0.924,0.9254,0.9269,0.9097,0.9097,0.9097,0.943,0.9385,0.9431,0.9381,0.9383,0.9335,0.9332,0.9306,0.926,0.9283,0.9283,0.9391,0.9414,0.9424,0.944,0.9303,0.9304,0.9304,0.9304,0.9557,0.958,0.9518,0.954,0.9492,0.951,0.9467,0.9433,0.9442,0.9387,0.9403,0.9345,0.9444,0.9456,0.9309,0.9309,0.9308,0.9307,0.9307,0.9666,0.9669,0.9654,0.965,0.9652,0.96,0.9612,0.9568,0.9526,0.9542,0.9536,0.9535,0.9526,0.9543,0.9544,0.9544,0.9544,0.9544,0.9545,0.9785,0.9764,0.978,0.9759,0.9754,0.9741,0.9695,0.9687,0.9668,0.9635,0.9635,0.9585,0.9464,0.9433,0.955,0.9549,0.9549,0.9548,0.9548,0.9926,0.9887,0.9911,0.9906,0.9878,0.9882,0.9827,0.9817,0.9805,0.9812,0.9759,0.9678,0.9651,0.9639,0.9613,0.977,0.977,0.977,0.977,1.0016,1.0,1.0014,1.0008,0.9998,0.995,0.9978,0.9942,0.9899,0.9889,0.986,0.9823,0.9813,0.9792,0.9777,0.9752,0.994,0.9941,0.9941,1.0099,1.008,1.0112,1.007,1.0045,1.0024,1.0048,1.0044,0.9987,0.9947,0.9879,0.9872,0.9811,0.9794,0.975,0.9727,0.968,0,0]},{"header":{"parameterUnit":"m.s-1","parameterCategory":1,"la1":30.2992,"la2":30.254,"lo1":-89.0895,"lo2":-89.0443,"dy":0.0025,"dx":0.0025,"nx":19,"ny":19,"refTime":"2026-04-15T21:00:00:Z","depth":0,"parameterNumber":3,"parameterNumberName":"V-component_of_WINDS"},"data":[0,0,0,0.9969,0.9968,0.9916,0.9916,0.987,0.9869,0,0,0,0,0,0,0,0,0,0,0,0.9999,0.9999,0.9969,0.9968,0.9916,0.9916,0.987,0.9869,0,0,0,0,0,0,0,0,0,0,0,0.9999,0.9999,0.9999,0.9968,0.9916,0.9915,0.987,0.9901,0,0,0,0,0,0,0,0,0,0,0.9949,0.999,0.9999,0.9999,0.9968,0.9916,0.9915,0.9903,0.9899,0.9903,0,0.991,0,0.9889,0.9868,0.9868,0,0,0,0.9958,0.9993,0.9966,0.9999,0.9968,0.9916,0.9936,0.9901,0.9897,0.9899,0.9909,0.9907,0.9889,0.9868,0.9867,0.9924,0.9925,0,0,0.996,0.9997,0.9968,0.9964,0.9975,0.9938,0.9935,0.9898,0.9912,0.9909,0.9906,0.9888,0.9867,0.9867,0.9923,0.9924,0,0,0,0.9976,0.9999,0.9973,0.9967,0.9956,0.9937,0.9933,0.9913,0.9902,0.9905,0.9887,0.9867,0.9867,0.9922,0.9923,0.9997,0,0,0,0.9977,1.0008,0.9974,0.9996,0.9957,0.9934,0.995,0.9904,0.9899,0.9887,0.9867,0.9867,0.9921,0.9923,0.9993,1.0026,0,0,0,0.9997,1.001,1.0007,0.9998,0.9977,0.9934,0.992,0.9902,0.9889,0.9868,0.9867,0.9921,0.9923,0.999,1.002,1.0052,0,0,0,1.0029,1.0074,1.0009,1.0052,0.9978,0.998,0.992,0.9919,0.991,0.9867,0.9921,0.9923,0.9989,1.0017,1.0048,1.0085,1.0104,0,0,1.0105,1.0084,1.0106,1.0047,1.0071,0.9985,1.0018,0.9975,0.9939,0.9931,0.9932,0.9994,1.002,1.0051,1.0195,1.0211,0,0,0,1.0142,1.0159,1.0157,1.015,1.0119,1.0094,1.0041,1.0025,1.0016,0.9943,1.0013,1.0027,1.0043,1.006,1.0073,1.0085,0.9932,0.9932,0.9932,1.0303,1.0255,1.0289,1.0235,1.0228,1.0174,1.0164,1.0132,1.0085,1.0103,1.01,1.0194,1.0214,1.0223,1.0237,1.0115,1.0115,1.0116,1.0116,1.0411,1.0427,1.0364,1.0373,1.0322,1.0329,1.0277,1.0244,1.0242,1.0192,1.0204,1.0154,1.0242,1.0251,1.0121,1.012,1.0119,1.0119,1.0118,1.0512,1.0511,1.0491,1.0475,1.0468,1.041,1.0412,1.0365,1.032,1.0332,1.0324,1.0323,1.0316,1.0331,1.0332,1.0332,1.0332,1.0333,1.0333,1.0625,1.0599,1.0607,1.0576,1.0565,1.0544,1.0489,1.0476,1.0449,1.0415,1.0414,1.0366,1.0259,1.0234,1.0338,1.0337,1.0336,1.0336,1.0335,1.0753,1.0717,1.0729,1.0718,1.0677,1.0673,1.0612,1.059,1.0572,1.0575,1.0523,1.0451,1.0426,1.0415,1.0394,1.0533,1.0533,1.0533,1.0533,1.0839,1.0821,1.0823,1.0808,1.0788,1.0734,1.0748,1.0705,1.0653,1.0639,1.0612,1.0579,1.057,1.055,1.0536,1.0516,1.0683,1.0683,1.0683,1.0916,1.0894,1.0916,1.0866,1.0831,1.0801,1.0812,1.0797,1.0731,1.0688,1.0627,1.0621,1.0567,1.0552,1.051,1.049,1.0451,0,0]}]]